Warning: Javascript must be enabled to use all the features on this page!


Page Loading - Please Wait...

Click to hideNews Bulletins
Click to hide state-specific text

Explore Real-time Water Data Using New Products from USGS TXWSC

View over 750 USGS real-time stream, lake, reservoir, precipitation, and groundwater stations in context with current weather and hazard conditions on both desktop and mobile devices.

Click to go to the Texas Water Dashboard Click to go to the WATER On-the-go app

Follow @USGS_TexasFlood and @USGS_TexasRain on Twitter to get current water level and precipitation data during flooding or severe rainfall events.

USGS Texas Water Science Center is experiencing an unexplained outage that is affecting the reporting of data from some streamflow sites. USGS staff are looking into the situation.


* IMPORTANT: Next Generation Station Page

USGS 08167700 Canyon Lk nr New Braunfels, TX

PROVISIONAL DATA SUBJECT TO REVISION

Click to hidestation-specific text
Funding for this site is provided by the cooperators / programs below:
Click to go to the Corps of Engineers, Fort Worth District web page

Corps of Engineers, Fort Worth District


Rainfall Disclaimer


retransmission, forecasts and summary of this location by the National Weather Service
Retransmission, forecasts and summary by the National Weather Service
This station managed by the San Antonio Field Unit.

Available Parameters Available Period
All 6 Available Parameters for this site
  
00035 Wind speed 2018-12-22  2019-04-19
00036 Wind direction 2018-12-22  2019-04-19
00045 Precipitation 2018-12-22  2019-04-21
45592 Gate opening, height, FLOOD GATE 1 2016-04-21  2019-04-21
45592 Gate opening, height, FLOOD GATE 2 2016-04-21  2019-04-19
62614 Elevation, lake/res, NGVD29 2007-10-01  2019-04-19

Graph
Graph w/ stats
Graph w/o stats
Graph w/ (up to 3) parms
Table
Tab-separated
Days  (7)
 

  -- or --
Begin date
 

End date
 

Summary of all available data for this site
Instantaneous-data availability statement






Date / Time
Lake or
reser-
voir
elev-
ation,
NGVD,
feet,



Precip-
itation
total,
inches,



Gate
opening
height
feet,
FLOOD
GATE
1



Gate
opening
height
feet,
FLOOD
GATE
2
Wind
direc-
tion,
clkwise
from
north,
degrees,




Wind
speed,
mi/h,
04/14/2019 16:45 CDT880.00P                 
04/17/2019 09:45 CDT      -2.45P  -2.57P  0P  0.0P  
04/17/2019 10:00 CDT   0.00P  -2.45P  -2.57P  0P  0.0P  
04/17/2019 10:15 CDT   0.00P  -2.45P  -2.57P  125P  12.3P  
04/17/2019 10:30 CDT   0.00P  -2.45P  -2.57P  130P  6.8P  
04/17/2019 10:45 CDT   0.00P  -2.45P  -2.57P  125P  14.7P  
04/17/2019 11:00 CDT   0.00P  -2.45P  -2.57P  113P  10.8P  
04/17/2019 11:15 CDT   0.00P  -2.45P  -2.57P  117P  13.8P  
04/17/2019 11:30 CDT   0.00P  -2.45P  -2.57P  117P  12.6P  
04/17/2019 11:45 CDT   0.00P  -2.45P  -2.57P  109P  10.5P  
04/17/2019 12:00 CDT   0.00P  -2.45P  -2.57P  121P  13.7P  
04/17/2019 12:15 CDT908.96P  0.00P  -2.45P  -2.57P  97P  13.8P  
04/17/2019 12:30 CDT908.96P  0.00P  -2.45P  -2.57P  123P  17.9P  
04/17/2019 12:45 CDT908.96P  0.00P  -2.45P  -2.57P  124P  14.0P  
04/17/2019 13:00 CDT908.96P  0.00P  -2.45P  -2.57P  112P  21.6P  
04/17/2019 13:15 CDT908.96P  0.00P  -2.45P  -2.57P  96P  19.6P  
04/17/2019 13:30 CDT908.96P  0.00P  -2.45P  -2.57P  107P  20.3P  
04/17/2019 13:45 CDT908.96P  0.00P  -2.45P  -2.57P  118P  18.3P  
04/17/2019 14:00 CDT908.96P  0.00P  -2.45P  -2.57P  90P  17.0P  
04/17/2019 14:15 CDT908.96P  0.00P  -2.45P  -2.57P  60P  21.2P  
04/17/2019 14:30 CDT908.96P  0.00P  -2.45P  -2.57P  81P  12.1P  
04/17/2019 14:45 CDT908.96P  0.00P  -2.45P  -2.57P  96P  18.5P  
04/17/2019 15:00 CDT908.96P  0.00P  -2.45P  -2.57P  83P  12.7P  
04/17/2019 15:15 CDT908.96P  0.00P  -2.45P  -2.57P  99P  16.1P  
04/17/2019 15:30 CDT908.96P  0.00P  -2.45P  -2.57P  97P  19.1P  
04/17/2019 15:45 CDT908.96P  0.00P  -2.45P  -2.57P  83P  8.7P  
04/17/2019 16:00 CDT908.96P  0.00P  -2.45P  -2.57P  81P  10.6P  
04/17/2019 16:15 CDT908.96P  0.00P  -2.45P  -2.57P  54P  9.3P  
04/17/2019 16:30 CDT908.96P  0.00P  -2.45P  -2.57P  78P  9.3P  
04/17/2019 16:45 CDT908.96P  0.00P  -2.45P  -2.57P  50P  10.0P  
04/17/2019 17:00 CDT908.96P  0.00P  -2.45P  -2.57P  77P  13.1P  
04/17/2019 17:15 CDT908.96P  0.00P  -2.45P  -2.57P  40P  10.2P  
04/17/2019 17:30 CDT908.96P  0.00P  -2.45P  -2.57P  65P  14.7P  
04/17/2019 17:45 CDT908.96P  0.00P  -2.45P  -2.57P  69P  3.6P  
04/17/2019 18:00 CDT908.96P  0.00P  -2.45P  -2.57P  47P  12.4P  
04/17/2019 18:15 CDT908.96P  0.00P  -2.45P  -2.57P  39P  7.9P  
04/17/2019 18:30 CDT908.96P  0.00P  -2.45P  -2.57P  71P  8.0P  
04/17/2019 18:45 CDT908.96P  0.00P  -2.45P  -2.57P  73P  17.2P  
04/17/2019 19:00 CDT908.96P  0.00P  -2.45P  -2.57P  49P  15.7P  
04/17/2019 19:15 CDT908.96P  0.00P  -2.45P  -2.57P  39P  15.8P  
04/17/2019 19:30 CDT908.96P  0.00P  -2.45P  -2.57P  26P  5.5P  
04/17/2019 19:45 CDT908.96P  0.00P  -2.45P  -2.57P  17P  10.1P  
04/17/2019 20:00 CDT908.96P  0.00P  -2.45P  -2.57P  31P  7.2P  
04/17/2019 20:15 CDT908.96P  0.00P  -2.45P  -2.57P  58P  16.4P  
04/17/2019 20:30 CDT908.96P  0.00P  -2.45P  -2.57P  44P  18.5P  
04/17/2019 20:45 CDT908.96P  0.00P  -2.45P  -2.57P  45P  11.9P  
04/17/2019 21:00 CDT908.96P  0.00P  -2.45P  -2.57P  76P  6.7P  
04/17/2019 21:15 CDT908.96P  0.00P  -2.45P  -2.57P  58P  8.9P  
04/17/2019 21:30 CDT908.96P  0.00P  -2.45P  -2.57P  49P  8.1P  
04/17/2019 21:45 CDT908.96P  0.00P  -2.45P  -2.57P  58P  14.2P  
04/17/2019 22:00 CDT908.96P  0.00P  -2.45P  -2.57P  60P  11.5P  
04/17/2019 22:15 CDT908.96P  0.00P  -2.45P  -2.57P  83P  19.8P  
04/17/2019 22:30 CDT908.96P  0.00P  -2.45P  -2.57P  71P  11.6P  
04/17/2019 22:45 CDT908.96P  0.00P  -2.45P  -2.57P  97P  7.0P  
04/17/2019 23:00 CDT908.96P  0.00P  -2.45P  -2.57P  145P  4.3P  
04/17/2019 23:15 CDT908.96P  0.00P  -2.45P  -2.57P  145P  7.2P  
04/17/2019 23:30 CDT908.96P  0.00P  -2.45P  -2.57P  161P  2.7P  
04/17/2019 23:45 CDT908.96P  0.00P  -2.45P  -2.57P  261P  5.7P  
04/18/2019 00:00 CDT908.98P  0.00P  -2.45P  -2.57P  243P  30.5P  
04/18/2019 00:15 CDT909.04P  0.00P  -2.45P  -2.57P  242P  28.3P  
04/18/2019 00:30 CDT909.02P  0.00P  -2.45P  -2.57P  252P  18.9P  
04/18/2019 00:45 CDT909.01P  0.02P  -2.45P  -2.57P  245P  20.4P  
04/18/2019 01:00 CDT908.99P  0.02P  -2.45P  -2.57P  229P  15.5P  
04/18/2019 01:15 CDT909.01P  0.01P  -2.45P  -2.57P  240P  30.3P  
04/18/2019 01:30 CDT909.01P  0.00P  -2.45P  -2.57P  221P  19.1P  
04/18/2019 01:45 CDT908.99P  0.01P  -2.45P  -2.57P  220P  26.0P  
04/18/2019 02:00 CDT909.03P  0.01P  -2.45P  -2.57P  264P  12.8P  
04/18/2019 02:15 CDT908.98P  0.00P  -2.45P  -2.57P  216P  21.0P  
04/18/2019 02:30 CDT909.04P  0.00P  -2.45P  -2.57P  243P  18.2P  
04/18/2019 02:45 CDT909.02P  0.00P  -2.45P  -2.57P  240P  11.5P  
04/18/2019 03:00 CDT909.06P  0.00P  -2.45P  -2.57P  258P  9.6P  
04/18/2019 03:15 CDT908.96P  0.01P  -2.45P  -2.57P  46P  5.7P  
04/18/2019 03:30 CDT909.03P  0.00P  -2.45P  -2.57P  54P  5.4P  
04/18/2019 03:45 CDT909.04P  0.01P  -2.45P  -2.57P  101P  7.0P  
04/18/2019 04:00 CDT909.01P  0.00P  -2.45P  -2.57P  69P  5.7P  
04/18/2019 04:15 CDT909.00P  0.01P  -2.45P  -2.57P  58P  5.3P  
04/18/2019 04:30 CDT908.99P  0.00P  -2.45P  -2.57P  113P  1.4P  
04/18/2019 04:45 CDT908.99P  0.00P  -2.45P  -2.57P  15P  9.5P  
04/18/2019 05:00 CDT908.97P  0.00P  -2.45P  -2.57P  52P  15.4P  
04/18/2019 05:15 CDT908.98P  0.00P  -2.45P  -2.57P  54P  7.1P  
04/18/2019 05:30 CDT909.02P  0.00P  -2.45P  -2.57P  3P  8.2P  
04/18/2019 05:45 CDT909.01P  0.00P  -2.45P  -2.57P  108P  6.2P  
04/18/2019 06:00 CDT909.01P  0.00P  -2.45P  -2.57P  145P  9.3P  
04/18/2019 06:15 CDT909.01P  0.00P  -2.45P  -2.57P  141P  6.4P  
04/18/2019 06:30 CDT909.01P  0.00P  -2.45P  -2.57P  122P  6.4P  
04/18/2019 06:45 CDT909.01P  0.00P  -2.45P  -2.57P  166P  2.8P  
04/18/2019 07:00 CDT909.01P  0.00P  -2.45P  -2.57P  189P  7.2P  
04/18/2019 07:15 CDT909.01P  0.00P  -2.45P  -2.57P  146P  7.5P  
04/18/2019 07:30 CDT909.01P  0.00P  -2.45P  -2.57P  159P  5.6P  
04/18/2019 07:45 CDT909.01P  0.00P  -2.45P  -2.57P  177P  7.0P  
04/18/2019 08:00 CDT909.01P  0.00P  -2.45P  -2.57P  184P  8.4P  
04/18/2019 08:15 CDT909.01P  0.00P  -2.45P  -2.57P  177P  9.2P  
04/18/2019 08:30 CDT909.01P  0.00P  -2.45P  -2.57P  176P  12.1P  
04/18/2019 08:45 CDT909.01P  0.00P  -2.45P  -2.57P  178P  8.1P  
04/18/2019 09:00 CDT909.01P  0.00P  -2.45P  -2.57P  171P  10.2P  
04/18/2019 09:15 CDT909.01P  0.00P  -2.45P  -2.57P  181P  13.2P  
04/18/2019 09:30 CDT909.01P  0.00P  -2.45P  -2.57P  164P  5.1P  
04/18/2019 09:45 CDT909.01P  0.00P  -2.45P  -2.57P  141P  6.7P  
04/18/2019 10:00 CDT909.01P  0.00P  -2.45P  -2.57P  176P  4.0P  
04/18/2019 10:15 CDT909.01P  0.00P  -2.45P  -2.57P  182P  10.0P  
04/18/2019 10:30 CDT909.01P  0.00P  -2.45P  -2.57P  209P  11.7P  
04/18/2019 10:45 CDT909.01P  0.00P  -2.45P  -2.57P  211P  12.8P  
04/18/2019 11:00 CDT909.01P  0.00P  -2.45P  -2.57P  206P  9.8P  
04/18/2019 11:15 CDT909.01P  0.00P  -2.45P  -2.57P  167P  14.0P  
04/18/2019 11:30 CDT909.01P  0.00P  -2.45P  -2.57P  205P  14.9P  
04/18/2019 11:45 CDT909.01P  0.00P  -2.45P  -2.57P  212P  8.9P  
04/18/2019 12:00 CDT909.01P  0.00P  -2.45P  -2.57P  235P  26.7P  
04/18/2019 12:15 CDT909.03P  0.00P  -2.45P  -2.57P  217P  19.4P  
04/18/2019 12:30 CDT909.03P  0.00P  -2.45P  -2.57P  248P  16.6P  
04/18/2019 12:45 CDT909.03P  0.00P  -2.45P  -2.57P  229P  18.0P  
04/18/2019 13:00 CDT909.03P  0.00P  -2.45P  -2.57P  222P  24.5P  
04/18/2019 13:15 CDT909.03P  0.00P  -2.45P  -2.57P  244P  21.0P  
04/18/2019 13:30 CDT909.03P  0.00P  -2.45P  -2.57P  250P  32.1P  
04/18/2019 13:45 CDT909.03P  0.00P  -2.45P  -2.57P  237P  30.9P  
04/18/2019 14:00 CDT909.03P  0.00P  -2.45P  -2.57P  232P  17.7P  
04/18/2019 14:15 CDT909.04P  0.00P  -2.45P  -2.57P  243P  36.4P  
04/18/2019 14:30 CDT909.04P  0.00P  -2.45P  -2.57P  227P  14.7P  
04/18/2019 14:45 CDT909.03P  0.00P  -2.45P  -2.57P  253P  19.0P  
04/18/2019 15:00 CDT909.03P  0.00P  -2.45P  -2.57P  235P  24.0P  
04/18/2019 15:15 CDT909.05P  0.00P  -2.45P  -2.57P  262P  29.9P  
04/18/2019 15:30 CDT909.04P  0.00P  -2.45P  -2.57P  273P  19.6P  
04/18/2019 15:45 CDT909.04P  0.00P  -2.45P  -2.57P  257P  25.8P  
04/18/2019 16:00 CDT909.04P  0.00P  -2.45P  -2.57P  267P  24.7P  
04/18/2019 16:15 CDT909.04P  0.00P  -2.45P  -2.57P  260P  14.2P  
04/18/2019 16:30 CDT909.04P  0.00P  -2.45P  -2.57P  250P  18.2P  
04/18/2019 16:45 CDT909.04P  0.00P  -2.45P  -2.57P  265P  30.3P  
04/18/2019 17:00 CDT909.03P  0.00P  -2.45P  -2.57P  285P  16.4P  
04/18/2019 17:15 CDT909.02P  0.00P  -2.45P  -2.57P  266P  20.4P  
04/18/2019 17:30 CDT909.02P  0.00P  -2.45P  -2.57P  259P  25.9P  
04/18/2019 17:45 CDT909.02P  0.00P  -2.45P  -2.57P  253P  18.9P  
04/18/2019 18:00 CDT909.02P  0.00P  -2.45P  -2.57P  268P  18.8P  
04/18/2019 18:15 CDT909.02P  0.00P  -2.45P  -2.57P  238P  7.0P  
04/18/2019 18:30 CDT909.02P  0.00P  -2.45P  -2.57P  235P  16.6P  
04/18/2019 18:45 CDT909.02P  0.00P  -2.45P  -2.57P  255P  12.1P  
04/18/2019 19:00 CDT909.02P  0.00P  -2.45P  -2.57P  237P  13.0P  
04/18/2019 19:15 CDT909.02P  0.00P  -2.45P  -2.57P  248P  20.9P  
04/18/2019 19:30 CDT909.02P  0.00P  -2.45P  -2.57P  250P  16.3P  
04/18/2019 19:45 CDT909.02P  0.00P  -2.45P  -2.57P  264P  10.6P  
04/18/2019 20:00 CDT909.02P  0.00P  -2.45P  -2.57P  255P  10.4P  
04/18/2019 20:15 CDT909.02P  0.00P  -2.45P  -2.57P  256P  10.0P  
04/18/2019 20:30 CDT909.02P  0.00P  -2.45P  -2.57P  257P  4.1P  
04/18/2019 20:45 CDT909.02P  0.00P  -2.45P  -2.57P  231P  6.7P  
04/18/2019 21:00 CDT909.02P  0.00P  -2.45P  -2.57P  241P  10.5P  
04/18/2019 21:15 CDT909.02P  0.00P  -2.45P  -2.57P  249P  6.9P  
04/18/2019 21:30 CDT909.02P  0.00P  -2.45P  -2.57P  243P  7.9P  
04/18/2019 21:45 CDT909.02P  0.00P  -2.45P  -2.57P  234P  7.5P  
04/18/2019 22:00 CDT909.02P  0.00P  -2.45P  -2.57P  243P  6.1P  
04/18/2019 22:15 CDT909.02P  0.00P  -2.45P  -2.57P  212P  3.1P  
04/18/2019 22:30 CDT909.02P  0.00P  -2.45P  -2.57P  224P  3.9P  
04/18/2019 22:45 CDT909.02P  0.00P  -2.45P  -2.57P  228P  7.1P  
04/18/2019 23:00 CDT909.02P  0.00P  -2.45P  -2.57P  224P  5.1P  
04/18/2019 23:15 CDT909.02P  0.00P  -2.45P  -2.57P  242P  4.8P  
04/18/2019 23:30 CDT909.02P  0.00P  -2.45P  -2.57P  231P  3.8P  
04/18/2019 23:45 CDT909.02P  0.00P  -2.45P  -2.57P  236P  2.5P  
04/19/2019 00:00 CDT909.02P  0.00P  -2.45P  -2.57P  244P  4.4P  
04/19/2019 00:15 CDT909.02P  0.00P  -2.45P  -2.57P  234P  3.7P  
04/19/2019 00:30 CDT909.02P  0.00P  -2.45P  -2.57P  254P  2.2P  
04/19/2019 00:45 CDT909.02P  0.00P  -2.45P  -2.57P  233P  4.9P  
04/19/2019 01:00 CDT909.02P  0.00P  -2.45P  -2.57P  230P  4.2P  
04/19/2019 01:15 CDT909.01P  0.00P  -2.45P  -2.57P  246P  7.0P  
04/19/2019 01:30 CDT909.01P  0.00P  -2.45P  -2.57P  252P  8.2P  
04/19/2019 01:45 CDT909.01P  0.00P  -2.45P  -2.57P  232P  8.0P  
04/19/2019 02:00 CDT909.01P  0.00P  -2.45P  -2.57P  232P  10.2P  
04/19/2019 02:15 CDT909.00P  0.00P  -2.45P  -2.57P  243P  5.3P  
04/19/2019 02:30 CDT909.00P  0.00P  -2.45P  -2.57P  165P  7.9P  
04/19/2019 02:45 CDT909.00P  0.00P  -2.45P  -2.57P  135P  4.5P  
04/19/2019 03:00 CDT909.00P  0.00P  -2.45P  -2.57P  222P  5.7P  
04/19/2019 03:15 CDT909.00P  0.00P  -2.45P  -2.57P  240P  9.0P  
04/19/2019 03:30 CDT909.00P  0.00P  -2.45P  -2.57P  164P  4.6P  
04/19/2019 03:45 CDT909.00P  0.00P  -2.45P  -2.57P  226P  6.8P  
04/19/2019 04:00 CDT909.00P  0.00P  -2.45P  -2.57P  150P  8.8P  
04/19/2019 04:15 CDT909.00P  0.00P  -2.45P  -2.57P  230P  5.7P  
04/19/2019 04:30 CDT909.00P  0.00P  -2.45P  -2.57P  169P  4.8P  
04/19/2019 04:45 CDT909.00P  0.00P  -2.45P  -2.57P  149P  4.2P  
04/19/2019 05:00 CDT909.00P  0.00P  -2.45P  -2.57P  255P  4.5P  
04/19/2019 05:15 CDT909.00P  0.00P  -2.45P  -2.57P  224P  5.1P  
04/19/2019 05:30 CDT909.00P  0.00P  -2.45P  -2.57P  190P  7.9P  
04/19/2019 05:45 CDT909.00P  0.00P  -2.45P  -2.57P  212P  9.5P  
04/19/2019 06:00 CDT909.00P  0.00P  -2.45P  -2.57P  229P  6.4P  
04/19/2019 06:15 CDT909.00P  0.00P  -2.45P  -2.57P  244P  14.0P  
04/19/2019 06:30 CDT908.99P  0.00P  -2.45P  -2.57P  185P  6.4P  
04/19/2019 06:45 CDT908.99P  0.00P  -2.45P  -2.57P  212P  6.0P  
04/19/2019 07:00 CDT908.99P  0.00P  -2.45P  -2.57P  236P  7.2P  
04/19/2019 07:15 CDT908.99P  0.00P  -2.45P  -2.57P  233P  11.5P  
04/19/2019 07:30 CDT908.98P  0.00P  -2.45P  -2.57P  225P  4.8P  
04/19/2019 07:45 CDT908.98P  0.00P  -2.45P  -2.57P  205P  2.4P  
04/19/2019 08:00 CDT908.98P  0.00P  -2.45P  -2.57P  201P  4.1P  
04/19/2019 08:15 CDT908.99P  0.00P  -2.45P  -2.57P  212P  7.8P  
04/19/2019 08:30 CDT908.98P  0.00P  -2.45P  -2.57P  193P  7.3P  
04/19/2019 08:45 CDT908.98P  0.00P  -2.45P  -2.57P  232P  4.2P  
04/19/2019 09:00 CDT908.98P  0.00P  -2.45P  -2.57P  219P  11.1P  
04/19/2019 09:15 CDT908.99P  0.00P  -2.45P  -2.57P  249P  13.0P  
04/19/2019 09:30 CDT908.99P  0.00P  -2.45P  -2.57P  236P  14.2P  
04/19/2019 09:45 CDT909.00P  0.00P  -2.45P  -2.57P  256P  14.1P  
04/19/2019 10:00 CDT909.00P  0.00P  -2.45P  -2.57P  267P  21.9P  
04/19/2019 10:15 CDT909.00P  0.00P  -2.45P  -2.57P  243P  17.5P  
04/19/2019 10:30 CDT909.00P  0.00P  -2.45P  -2.57P  251P  20.2P  
04/19/2019 10:45 CDT909.00P  0.00P  -2.45P  -2.57P  233P  14.0P  
04/19/2019 11:00 CDT909.00P  0.00P  -2.45P  -2.57P  230P  10.8P  
04/19/2019 11:15 CDT909.00P  0.00P  -2.45P  -2.57P  267P  15.4P  
04/19/2019 11:30 CDT909.00P  0.00P  -2.45P  -2.57P  260P  22.8P  
04/19/2019 11:45 CDT909.00P  0.00P  -2.45P  -2.57P  280P  12.5P  
04/19/2019 12:00 CDT909.00P  0.00P  -2.45P  -2.57P  252P  21.9P  
04/19/2019 12:15 CDT909.00P  0.00P  -2.45P  -2.57P  246P  15.7P  
04/19/2019 12:30 CDT909.00P  0.00P  -2.45P  -2.57P  288P  15.5P  
04/19/2019 12:45 CDT909.00P  0.00P  -2.45P  -2.57P  266P  12.7P  
04/19/2019 13:00 CDT909.00P  0.00P  -2.45P  -2.57P  245P  15.5P  
04/19/2019 13:15 CDT909.00P  0.00P  -2.45P  -2.57P  246P  15.9P  
04/19/2019 13:30 CDT909.00P  0.00P  -2.45P  -2.57P  240P  16.9P  
04/19/2019 13:45 CDT909.00P  0.00P  -2.45P  -2.57P  240P  13.5P  
04/19/2019 14:00 CDT909.00P  0.00P  -2.45P  -2.57P  238P  21.6P  
04/19/2019 14:15 CDT909.00P  0.00P  -2.45P  -2.57P  258P  22.7P  
04/19/2019 15:15 CDT   53.67P  497.42P           
04/19/2019 16:15 CDT   0.00P  497.42P           
04/19/2019 17:15 CDT   0.00P  497.42P           
04/19/2019 18:15 CDT   0.00P  497.42P           
04/19/2019 19:15 CDT   0.00P  497.42P           
04/19/2019 20:15 CDT   0.00P  497.42P           
04/19/2019 21:15 CDT   0.00P  497.42P           
04/19/2019 22:15 CDT   0.00P  497.42P           
04/19/2019 23:15 CDT   0.00P  497.42P           
04/20/2019 00:15 CDT   0.00P  497.42P           
04/20/2019 01:15 CDT   0.00P  497.42P           
04/20/2019 02:15 CDT   0.00P  497.42P           
04/20/2019 03:15 CDT   0.00P  497.42P           
04/20/2019 04:15 CDT   0.00P  497.42P           
04/20/2019 05:15 CDT   0.00P  497.42P           
04/20/2019 06:15 CDT   0.00P  497.42P           
04/20/2019 07:15 CDT   0.00P  497.42P           
04/20/2019 08:15 CDT   0.00P  497.42P           
04/20/2019 09:15 CDT   0.00P  497.42P           
04/20/2019 10:15 CDT   0.00P  497.42P           
04/20/2019 11:15 CDT   0.00P  497.42P           
04/20/2019 12:15 CDT   0.00P  497.42P           
04/20/2019 13:15 CDT   0.00P  497.42P           
04/20/2019 14:15 CDT   0.00P  497.42P           
04/20/2019 15:15 CDT   0.00P  497.42P           
04/20/2019 16:15 CDT   0.00P  497.42P           
04/20/2019 17:15 CDT   0.00P  497.42P           
04/20/2019 18:15 CDT   0.00P  497.42P           
04/20/2019 19:15 CDT   0.00P  497.42P           
04/20/2019 20:15 CDT   0.00P  497.42P           
04/20/2019 21:15 CDT   0.00P  497.42P           
04/20/2019 22:15 CDT   0.00P  497.42P           
04/20/2019 23:15 CDT   0.00P  497.42P           
04/21/2019 00:15 CDT   0.00P  497.42P           
04/21/2019 01:15 CDT   0.00P  497.42P           
04/21/2019 02:15 CDT   0.00P  497.42P           
04/21/2019 03:15 CDT   0.00P  497.42P           
04/21/2019 04:15 CDT   0.00P  497.42P           
04/21/2019 05:15 CDT   0.00P  497.42P           
04/21/2019 06:15 CDT   0.00P  497.42P           
04/21/2019 07:15 CDT   0.00P  497.42P           
04/21/2019 08:15 CDT   0.00P  497.42P           
04/21/2019 09:15 CDT   0.00P  497.42P           

Explanation
  P  Provisional data subject to revision.